TimeEDT,TemperatureF,Dew PointF,Humidity,Sea Level PressureIn,VisibilityMPH,Wind Direction,Wind SpeedMPH,Gust SpeedMPH,PrecipitationIn,Events,Conditions,WindDirDegrees,DateUTC
12:53 AM,37.9,35.1,89,30.06,10.0,Calm,Calm,-,N/A,,Clear,0,2011-10-23 04:53:00
1:53 AM,37.9,34.0,86,30.04,10.0,Calm,Calm,-,N/A,,Clear,0,2011-10-23 05:53:00
2:53 AM,39.0,34.0,82,30.03,10.0,Calm,Calm,-,N/A,,Clear,0,2011-10-23 06:53:00
3:53 AM,37.0,34.0,89,30.01,10.0,Calm,Calm,-,N/A,,Clear,0,2011-10-23 07:53:00
4:53 AM,35.1,32.0,89,30.02,10.0,Calm,Calm,-,N/A,,Clear,0,2011-10-23 08:53:00
5:53 AM,36.0,32.0,86,30.03,10.0,South,4.6,-,N/A,,Clear,180,2011-10-23 09:53:00
6:53 AM,41.0,34.0,76,30.01,10.0,South,5.8,-,N/A,,Clear,170,2011-10-23 10:53:00
7:53 AM,39.9,34.0,79,30.01,10.0,SSE,5.8,-,N/A,,Clear,160,2011-10-23 11:53:00
8:53 AM,44.1,37.0,76,30.02,10.0,South,6.9,-,N/A,,Scattered Clouds,170,2011-10-23 12:53:00
9:53 AM,48.9,39.9,71,30.02,10.0,South,4.6,-,N/A,,Overcast,180,2011-10-23 13:53:00
10:53 AM,54.0,39.0,57,30.00,10.0,SSW,8.1,-,N/A,,Partly Cloudy,210,2011-10-23 14:53:00
11:53 AM,57.2,42.8,59,29.98,10.0,South,6.9,-,N/A,,Clear,180,2011-10-23 15:53:00
12:53 PM,61.0,42.1,50,29.97,10.0,SSW,8.1,-,N/A,,Clear,210,2011-10-23 16:53:00
1:53 PM,62.1,42.1,48,29.94,10.0,SW,10.4,18.4,N/A,,Clear,230,2011-10-23 17:53:00
2:53 PM,64.0,42.1,45,29.93,10.0,West,9.2,17.3,N/A,,Clear,260,2011-10-23 18:53:00
3:53 PM,64.0,43.0,46,29.91,10.0,SW,8.1,-,N/A,,Partly Cloudy,220,2011-10-23 19:53:00
4:53 PM,64.0,39.0,40,29.90,10.0,SW,9.2,18.4,N/A,,Clear,220,2011-10-23 20:53:00
5:53 PM,62.1,41.0,46,29.90,10.0,SW,6.9,-,N/A,,Clear,220,2011-10-23 21:53:00
6:53 PM,57.9,39.9,51,29.91,10.0,SW,4.6,-,N/A,,Scattered Clouds,220,2011-10-23 22:53:00
7:53 PM,57.0,41.0,55,29.91,10.0,SSW,4.6,-,N/A,,Partly Cloudy,200,2011-10-23 23:53:00
8:53 PM,57.0,41.0,55,29.91,10.0,South,5.8,-,N/A,,Partly Cloudy,190,2011-10-24 00:53:00
9:53 PM,54.0,42.1,64,29.92,10.0,SW,4.6,-,N/A,,Mostly Cloudy,220,2011-10-24 01:53:00
10:53 PM,53.1,45.0,74,29.91,9.0,Variable,5.8,-,0.01,Rain,Light Rain,0,2011-10-24 02:53:00
11:53 PM,48.0,46.0,93,29.88,10.0,SE,4.6,-,0.01,,Mostly Cloudy,140,2011-10-24 03:53:00